TimeCST,TemperatureF,Dew PointF,Humidity,Sea Level PressureIn,VisibilityMPH,Wind Direction,Wind SpeedMPH,Gust SpeedMPH,PrecipitationIn,Events,Conditions,WindDirDegrees,DateUTC
12:15 AM,33.8,21.2,60,29.97,10.0,South,21.9,-,N/A,,Overcast,180,2012-12-31 06:15:00
12:35 AM,33.8,23.0,65,29.97,10.0,South,24.2,28.8,N/A,,Overcast,180,2012-12-31 06:35:00
12:55 AM,32.0,23.0,69,29.96,10.0,South,19.6,-,N/A,,Overcast,170,2012-12-31 06:55:00
1:15 AM,32.0,24.8,75,29.98,10.0,South,15.0,-,N/A,,Overcast,190,2012-12-31 07:15:00
1:35 AM,32.0,24.8,75,29.98,10.0,South,10.4,-,N/A,,Overcast,180,2012-12-31 07:35:00
1:55 AM,32.0,24.8,75,29.98,10.0,South,11.5,-,N/A,,Overcast,180,2012-12-31 07:55:00
2:15 AM,32.0,24.8,75,29.96,10.0,South,11.5,-,N/A,,Overcast,180,2012-12-31 08:15:00
2:35 AM,32.0,26.6,80,29.96,10.0,South,11.5,-,N/A,,Overcast,180,2012-12-31 08:35:00
2:55 AM,32.0,26.6,80,29.95,10.0,South,11.5,-,0.01,,Overcast,170,2012-12-31 08:55:00
3:15 AM,32.0,26.6,80,29.95,10.0,South,11.5,-,N/A,,Overcast,170,2012-12-31 09:15:00
3:35 AM,32.0,26.6,80,29.95,9.0,South,11.5,-,0.01,,Overcast,170,2012-12-31 09:35:00
3:55 AM,32.0,26.6,80,29.94,4.0,South,13.8,-,0.02,,Overcast,170,2012-12-31 09:55:00
4:15 AM,32.0,26.6,80,29.93,3.0,South,10.4,-,0.02,,Overcast,170,2012-12-31 10:15:00
4:35 AM,32.0,26.6,80,29.93,4.0,South,10.4,-,0.05,,Overcast,170,2012-12-31 10:35:00
4:55 AM,32.0,26.6,80,29.94,1.2,South,9.2,-,0.08,,Overcast,180,2012-12-31 10:55:00
5:15 AM,32.0,26.6,80,29.93,1.2,South,5.8,-,0.04,,Overcast,180,2012-12-31 11:15:00
5:35 AM,32.0,28.4,87,29.91,1.5,SE,5.8,-,0.08,,Overcast,140,2012-12-31 11:35:00
5:55 AM,32.0,28.4,87,29.91,2.5,SE,5.8,-,0.10,,Overcast,130,2012-12-31 11:55:00
6:15 AM,32.0,28.4,87,29.91,2.5,ESE,5.8,-,0.01,,Overcast,120,2012-12-31 12:15:00
6:35 AM,32.0,28.4,87,29.90,1.8,East,6.9,-,0.02,,Overcast,90,2012-12-31 12:35:00
6:55 AM,32.0,28.4,87,29.90,2.5,ENE,4.6,-,0.02,,Overcast,70,2012-12-31 12:55:00
7:15 AM,32.0,28.4,87,29.90,3.0,East,6.9,-,N/A,,Overcast,90,2012-12-31 13:15:00
7:35 AM,32.0,26.6,80,29.90,2.0,East,6.9,-,N/A,,Overcast,80,2012-12-31 13:35:00
7:55 AM,32.0,26.6,80,29.90,2.5,East,8.1,-,N/A,,Overcast,80,2012-12-31 13:55:00
8:15 AM,30.2,26.6,86,29.91,1.5,NE,8.1,-,0.01,,Overcast,50,2012-12-31 14:15:00
8:35 AM,30.2,26.6,86,29.91,1.8,ENE,8.1,-,0.01,,Overcast,60,2012-12-31 14:35:00
8:55 AM,30.2,26.6,86,29.91,1.8,NE,12.7,-,0.02,,Overcast,50,2012-12-31 14:55:00
9:15 AM,30.2,26.6,86,29.92,2.0,NE,9.2,-,N/A,,Overcast,50,2012-12-31 15:15:00
9:35 AM,30.2,26.6,86,29.93,0.8,NE,10.4,-,0.01,,Overcast,40,2012-12-31 15:35:00
9:55 AM,30.2,26.6,86,29.95,0.8,North,9.2,-,0.02,,Overcast,10,2012-12-31 15:55:00
10:15 AM,30.2,26.6,86,29.95,0.8,NNE,11.5,-,0.01,,Overcast,20,2012-12-31 16:15:00
10:35 AM,28.4,23.0,80,29.95,0.5,North,17.3,-,0.01,,Overcast,10,2012-12-31 16:35:00
10:55 AM,28.4,24.8,86,29.96,1.2,North,16.1,-,0.01,,Overcast,360,2012-12-31 16:55:00
11:15 AM,28.4,23.0,80,29.96,1.0,North,21.9,-,N/A,,Overcast,360,2012-12-31 17:15:00
11:35 AM,26.6,21.2,80,29.96,1.0,North,23.0,27.6,N/A,,Overcast,10,2012-12-31 17:35:00
11:55 AM,26.6,21.2,80,29.96,1.0,North,21.9,-,N/A,,Overcast,10,2012-12-31 17:55:00
12:15 PM,26.6,21.2,80,29.95,0.8,North,25.3,28.8,N/A,,Overcast,10,2012-12-31 18:15:00
12:35 PM,26.6,21.2,80,29.95,1.2,North,23.0,-,N/A,,Overcast,350,2012-12-31 18:35:00
12:55 PM,26.6,19.4,74,29.93,3.0,North,24.2,-,N/A,,Overcast,350,2012-12-31 18:55:00
1:15 PM,24.8,19.4,80,29.94,9.0,NNW,23.0,-,N/A,,Overcast,340,2012-12-31 19:15:00
1:35 PM,24.8,19.4,80,29.94,9.0,North,23.0,-,N/A,,Overcast,350,2012-12-31 19:35:00
1:55 PM,24.8,17.6,74,29.94,10.0,North,25.3,-,N/A,,Overcast,360,2012-12-31 19:55:00
2:15 PM,24.8,17.6,74,29.96,10.0,North,19.6,-,N/A,,Overcast,350,2012-12-31 20:15:00
2:35 PM,24.8,17.6,74,29.96,10.0,North,23.0,26.5,N/A,,Overcast,360,2012-12-31 20:35:00
2:55 PM,24.8,17.6,74,29.97,10.0,North,18.4,24.2,N/A,,Overcast,350,2012-12-31 20:55:00
3:15 PM,24.8,17.6,74,29.97,10.0,North,21.9,-,N/A,,Overcast,350,2012-12-31 21:15:00
3:35 PM,23.0,17.6,80,29.98,10.0,NNW,20.7,24.2,N/A,,Overcast,340,2012-12-31 21:35:00
3:55 PM,23.0,17.6,80,29.99,10.0,North,19.6,-,N/A,,Overcast,360,2012-12-31 21:55:00
4:35 PM,23.0,17.6,80,29.99,10.0,North,20.7,-,N/A,,Overcast,350,2012-12-31 22:35:00
4:55 PM,21.2,15.8,80,29.99,10.0,North,19.6,-,N/A,,Overcast,350,2012-12-31 22:55:00
5:15 PM,21.2,15.8,80,30.00,10.0,North,17.3,-,N/A,,Scattered Clouds,350,2012-12-31 23:15:00
5:35 PM,19.4,12.2,74,30.01,10.0,NNW,12.7,-,N/A,,Clear,340,2012-12-31 23:35:00
5:55 PM,17.6,10.4,73,30.02,10.0,NNW,10.4,-,N/A,,Scattered Clouds,340,2012-12-31 23:55:00
6:15 PM,17.6,12.2,79,30.04,10.0,NNW,9.2,-,N/A,,Scattered Clouds,340,2013-01-01 00:15:00
6:35 PM,15.8,8.6,73,30.06,10.0,NW,8.1,-,N/A,,Mostly Cloudy,320,2013-01-01 00:35:00
6:55 PM,17.6,12.2,79,30.06,10.0,NNW,10.4,-,N/A,,Overcast,340,2013-01-01 00:55:00
7:15 PM,19.4,14.0,80,30.06,10.0,North,11.5,-,N/A,,Overcast,350,2013-01-01 01:15:00
7:35 PM,17.6,12.2,79,30.06,10.0,NNW,10.4,-,N/A,,Scattered Clouds,340,2013-01-01 01:35:00
7:55 PM,15.8,8.6,73,30.08,10.0,NW,8.1,-,N/A,,Scattered Clouds,320,2013-01-01 01:55:00
8:15 PM,15.8,12.2,86,30.10,10.0,NNW,5.8,-,N/A,,Overcast,330,2013-01-01 02:15:00
8:35 PM,15.8,10.4,79,30.10,10.0,NW,3.5,-,N/A,,Mostly Cloudy,320,2013-01-01 02:35:00
9:15 PM,10.4,5.0,79,30.11,10.0,WNW,8.1,-,N/A,,Scattered Clouds,300,2013-01-01 03:15:00
9:35 PM,8.6,5.0,85,30.11,10.0,WNW,10.4,-,N/A,,Partly Cloudy,300,2013-01-01 03:35:00
9:55 PM,10.4,5.0,79,30.12,10.0,NW,9.2,-,N/A,,Mostly Cloudy,310,2013-01-01 03:55:00
10:15 PM,10.4,5.0,79,30.11,10.0,NW,8.1,-,N/A,,Overcast,310,2013-01-01 04:15:00
10:35 PM,8.6,3.2,79,30.12,10.0,NW,8.1,-,N/A,,Scattered Clouds,320,2013-01-01 04:35:00
10:55 PM,8.6,3.2,79,30.12,10.0,NW,5.8,-,N/A,,Clear,320,2013-01-01 04:55:00
11:15 PM,8.6,3.2,79,30.13,10.0,NW,8.1,-,N/A,,Partly Cloudy,320,2013-01-01 05:15:00
11:35 PM,8.6,3.2,79,30.12,10.0,NW,11.5,-,N/A,,Scattered Clouds,320,2013-01-01 05:35:00
11:55 PM,8.6,5.0,85,30.13,10.0,NNW,10.4,-,N/A,,Clear,330,2013-01-01 05:55:00